DateTimeUTC,F1_A11,F1_S11,BsB_S11,BsG_S11,BsR_S11,BbsB_S11,BbsG_S11,BbsR_S11,BaB_A11,BaG_A11,BaR_A11,Tu_S11,T_S11,Uu_S11,U_S11,P_S11,T1_A11
2021-12-01T16:00:00Z,00000200,21000000,,,,,,,0000.27,-000.08,0000.03,20.6,27.5,,00.0,0630.7,31.0
2021-12-01T16:01:00Z,00000200,21000000,,,,,,,-000.25,0000.26,-000.10,20.6,27.5,,00.0,0630.7,31.0
2021-12-01T16:02:00Z,00000200,21000000,,,,,,,0000.06,-000.13,0000.25,20.6,27.5,,00.0,0630.6,31.1
2021-12-01T16:03:00Z,00000200,61000000,,,,,,,0000.45,0000.14,-000.14,20.6,27.5,,00.0,0630.6,31.0
2021-12-01T16:04:00Z,00000200,41000000,0001.59,0000.26,-000.64,0000.17,-000.00,-000.09,0000.05,0000.12,-000.19,20.7,27.3,,00.0,0631.1,31.0
2021-12-01T16:05:00Z,00000200,01000000,0000.40,0000.29,-000.05,0000.20,0000.27,-000.20,-000.01,0000.13,0000.29,20.8,27.3,,00.0,0631.1,31.0
2021-12-01T16:06:00Z,00000200,01000000,0000.29,-000.09,0000.07,0000.87,0000.52,-000.05,0000.18,0000.35,-000.04,20.8,27.3,,00.0,0631.0,31.0
2021-12-01T16:07:00Z,00000200,01000000,0000.65,0000.03,0000.02,0000.51,0000.47,-000.03,0000.33,0000.16,0000.55,20.9,27.3,,00.0,0630.9,31.1
2021-12-01T16:08:00Z,00000200,01000000,0000.37,-000.00,-000.23,0000.44,-000.03,-000.01,-000.09,0000.03,0000.11,20.9,27.3,,00.0,0630.9,31.1
2021-12-01T16:09:00Z,00000200,01000000,0000.24,0000.25,0000.09,0000.18,0000.67,0000.28,0000.50,0000.23,0000.47,21.0,27.4,,00.0,0630.9,31.1
2021-12-01T16:10:00Z,00000200,01000000,0000.31,0000.12,0000.10,-000.08,0000.54,0000.04,0000.12,-000.02,-000.24,21.0,27.4,,00.0,0630.9,31.1
2021-12-01T16:11:00Z,00000200,01000000,0000.51,0000.28,0000.13,0000.70,0000.10,-000.04,0000.29,0000.44,0000.17,21.1,27.4,,00.0,0630.8,31.1
2021-12-01T16:12:00Z,00000200,01000000,0000.28,0000.25,0000.20,0000.05,0000.20,0000.01,0000.32,0000.02,0000.26,21.2,27.4,,00.0,0630.8,31.1
2021-12-01T16:13:00Z,00000200,01000000,0000.62,0000.01,-000.16,-000.05,0000.22,-000.09,-000.32,0000.40,-000.21,21.2,27.5,,00.0,0630.6,31.2
2021-12-01T16:14:00Z,00000200,01000000,0000.49,0000.40,-000.09,-000.38,0000.24,0000.58,0000.07,0000.08,0000.65,21.2,27.5,,00.0,0630.6,31.2
2021-12-01T16:15:00Z,00000200,01000000,0000.12,-000.06,0000.12,-000.03,0000.25,0000.48,0000.53,-000.04,0000.22,21.1,27.4,,00.0,0630.6,31.1
2021-12-01T16:16:00Z,00000200,01000000,0000.50,0000.30,0000.16,0000.09,0000.53,-000.25,0000.16,0000.28,-000.19,21.1,27.4,,00.0,0630.5,31.1
2021-12-01T16:17:00Z,00000200,01000000,0001.30,0000.16,0000.23,0000.86,0000.03,-000.17,0000.30,0000.49,0000.37,21.0,27.4,,00.0,0630.4,31.1
2021-12-01T16:18:00Z,00000200,01000000,0000.16,0000.36,0000.21,0000.55,0000.44,-000.02,0000.54,0000.01,0000.19,21.0,27.4,,00.0,0630.4,31.1
2021-12-01T16:19:00Z,00000200,01000000,0000.59,0000.50,-000.10,0000.14,0000.46,-000.23,-000.25,-000.08,-000.14,21.1,27.4,,00.0,0630.4,31.1
2021-12-01T16:20:00Z,00000200,01000000,0000.17,0000.25,0000.28,-000.11,0000.29,0000.39,-000.12,0000.29,0000.12,21.1,27.4,,00.0,0630.4,31.1
2021-12-01T16:21:00Z,00000200,01000000,0000.48,0000.30,-000.09,0000.18,0000.47,-000.36,0000.62,0000.28,0000.18,21.1,27.4,,00.0,0630.5,31.1
2021-12-01T16:22:00Z,00000200,01000000,0000.97,0000.03,0000.33,0000.15,0000.11,-000.15,-000.40,-000.22,0000.20,21.2,27.4,,00.0,0630.4,31.1
2021-12-01T16:23:00Z,00000200,01000000,0000.47,0000.26,0000.08,0000.05,0000.03,-000.21,0000.58,0000.38,-000.14,21.2,27.4,,00.0,0630.4,31.1
2021-12-01T16:24:00Z,00000200,01000000,-000.27,0000.10,-000.12,-000.00,0000.41,-000.24,-000.19,0000.10,0000.31,21.3,27.5,,00.0,0630.4,31.2
2021-12-01T16:25:00Z,00000200,01000000,0000.46,0000.24,-000.29,0000.49,0000.28,0000.02,0000.31,-000.00,-000.08,21.3,27.5,,00.0,0630.5,31.2
2021-12-01T16:26:00Z,00000200,01000000,0001.52,0000.13,0000.26,0001.28,0000.57,0000.28,0000.06,0000.14,0000.03,21.2,27.5,,00.0,0630.5,31.1
2021-12-01T16:27:00Z,00000200,01000000,-000.04,0000.25,0000.33,0000.33,0000.26,0000.11,0000.02,0000.05,-000.09,21.2,27.5,,00.0,0630.4,31.1
2021-12-01T16:28:00Z,00000200,01000000,-000.41,0000.17,-000.16,-000.22,0000.34,-000.62,0000.37,0000.26,0000.03,21.1,27.5,,00.0,0630.4,31.1
2021-12-01T16:29:00Z,00000200,01000000,0001.02,0000.08,0000.09,-000.06,0000.31,0000.19,-000.04,-000.00,0000.31,21.1,27.4,,00.0,0630.4,31.1
2021-12-01T16:30:00Z,00000200,01000000,0000.55,0000.25,-000.14,0000.60,0000.28,0000.18,0000.35,0000.30,0000.14,21.0,27.4,,00.0,0630.4,31.1
2021-12-01T16:31:00Z,00000200,01000000,0000.96,0000.18,0000.22,0000.72,0000.13,0000.08,0000.17,-000.22,0000.47,20.9,27.4,,00.0,0630.3,31.1
2021-12-01T16:32:00Z,00000200,01000000,0000.30,0000.46,0000.36,0000.17,0000.13,0000.21,0000.15,0000.54,-000.07,20.9,27.3,,00.0,0630.4,31.0
2021-12-01T16:33:00Z,00000200,01000000,0000.54,0000.01,-000.01,0000.15,0000.24,0000.07,0000.19,0000.34,0000.13,20.9,27.3,,00.0,0630.4,31.0
2021-12-01T16:34:00Z,00000200,01000000,0001.14,-000.05,-000.09,0000.20,0000.18,0000.05,0000.24,-000.09,0000.19,20.9,27.3,,00.0,0630.4,31.1
2021-12-01T16:35:00Z,00000200,01000000,0000.66,0000.60,-000.12,0000.23,-000.19,-000.42,-000.01,0000.26,0000.37,21.0,27.3,,00.0,0630.4,31.1
2021-12-01T16:36:00Z,00000200,01000000,0001.21,-000.01,-000.15,0000.25,0000.45,0000.10,0000.48,0000.10,0000.15,21.0,27.3,,00.0,0630.4,31.1
2021-12-01T16:37:00Z,00000200,01000000,0000.12,0000.30,0000.27,0000.38,0000.09,-000.10,-000.01,0000.19,-000.08,21.1,27.4,,00.0,0630.4,31.1
2021-12-01T16:38:00Z,00000200,01000000,-000.08,0000.41,0000.08,0000.45,0000.31,-000.30,0000.38,0000.34,0000.09,21.1,27.4,,00.0,0630.4,31.1
2021-12-01T16:39:00Z,00000200,01000000,0000.92,0000.21,0000.09,0000.47,0000.05,-000.04,0000.04,0000.08,0000.20,21.2,27.4,,00.0,0630.3,31.2
2021-12-01T16:40:00Z,00000200,01000000,0001.38,-000.07,-000.10,-000.04,0000.26,-000.20,0000.19,0000.22,0000.11,21.2,27.5,,00.0,0630.2,31.2
2021-12-01T16:41:00Z,00000200,01000000,0001.02,0000.28,0000.12,-000.11,0000.45,-000.13,-000.18,0000.11,0000.08,21.2,27.5,,00.0,0630.2,31.2
2021-12-01T16:42:00Z,00000200,01000000,-000.23,0000.06,0000.19,0000.27,-000.16,-000.10,0000.39,0000.18,0000.22,21.2,27.5,,00.0,0630.2,31.2
2021-12-01T16:43:00Z,00000200,01000000,0000.72,0000.18,-000.13,0000.71,0000.15,-000.29,0000.04,0000.04,-000.03,21.1,27.4,,00.0,0630.3,31.2
2021-12-01T16:44:00Z,00000200,01000000,0000.41,0000.33,-000.14,0000.08,0000.34,0000.05,0000.06,0000.06,0000.21,21.1,27.4,,00.0,0630.3,31.1
2021-12-01T16:45:00Z,00000200,01000000,0000.41,0000.33,0000.26,0000.58,0000.30,0000.03,0000.40,0000.31,0000.16,21.0,27.4,,00.0,0630.3,31.1
2021-12-01T16:46:00Z,00000200,01000000,0000.85,0000.26,0000.10,0000.71,0000.24,0000.41,0000.13,0000.39,0000.02,20.9,27.4,,00.0,0630.2,31.1
2021-12-01T16:47:00Z,00000200,01000000,0000.59,0000.17,0000.03,0000.37,0000.14,-000.43,0000.28,-000.34,0000.70,20.9,27.3,,00.0,0630.3,31.1
2021-12-01T16:48:00Z,00000200,01000000,0000.60,0000.03,0000.16,0000.05,-000.05,-000.09,0000.46,0000.75,0000.10,20.9,27.3,,00.0,0630.3,31.1
2021-12-01T16:49:00Z,00000200,01000000,0001.03,0000.32,0000.17,0000.57,0000.15,0000.04,-000.12,0000.06,-000.29,20.9,27.3,,00.0,0630.2,31.1
2021-12-01T16:50:00Z,00000200,01000000,0000.63,-000.01,0000.18,0000.35,0000.23,0000.14,0000.03,-000.16,0000.28,20.9,27.3,,00.0,0630.1,31.1
2021-12-01T16:51:00Z,00000200,01000000,0000.38,0000.44,-000.03,0000.33,0000.19,0000.18,0000.31,0000.46,0000.24,21.0,27.3,,00.0,0630.2,31.1
2021-12-01T16:52:00Z,00000200,01000000,0000.31,0000.33,0000.17,-000.09,-000.16,0000.12,0000.11,-000.32,-000.17,21.0,27.4,,00.0,0630.2,31.1
2021-12-01T16:53:00Z,00000200,01000000,0000.74,0000.38,0000.12,0000.43,0000.27,0000.02,0000.31,0000.55,0000.08,21.0,27.4,,00.0,0630.1,31.1
2021-12-01T16:54:00Z,00000200,01000000,0000.70,0000.36,0000.06,-000.09,0000.10,0000.05,-000.14,-000.02,0000.05,21.0,27.3,,00.0,0630.2,31.1
2021-12-01T16:55:00Z,00000200,01000000,0001.26,0000.14,0000.29,0000.39,0000.34,-000.11,0000.21,0000.01,0000.14,20.9,27.3,,00.0,0630.2,31.1
2021-12-01T16:56:00Z,00000200,01000000,0001.20,0000.18,-000.09,0000.21,-000.01,0000.07,0000.42,0000.36,0000.37,20.8,27.3,,00.0,0630.2,31.0
2021-12-01T16:57:00Z,00000200,41000000,,,,,,,-000.16,-000.25,-000.38,20.9,27.3,,00.0,0630.2,31.0
2021-12-01T16:58:00Z,00000200,61000000,,,,,,,0000.03,-000.18,0000.21,20.4,27.3,,00.0,0629.4,31.0
2021-12-01T16:59:00Z,00000200,21000000,,,,,,,-000.07,0000.16,0000.09,20.4,27.4,,00.0,0629.3,31.0
